Weather in Grigorovo

Russia / Arkhangel'skaya Oblast'     61°22′24″N   46°32′03″E
temp.,
°C
wind,
m/s
gust,
m/s
humid.,
%
clouds,
%
prec.,
mm/h
press.,
hPa
HPBL,
m
25 may, wed
wed2500:00+3nne149978 3.8 1009281
03:00+2ne259898 3.8 1009202
06:00+4n369098 0.0 1009371
09:00+4nne3695100 0.3 1008825
12:00+4n2496100 0.2 1009360
15:00+5n3493100 0.3 1008472
18:00+7nw238376 0.3 1007280
21:00+5nnw259799 1.3 1007209
26 may, thu
thu2600:00+4nw1296100 0.0 100678
03:00+3nnw1196100 0.0 100642
06:00+4nw119199 0.0 1004222
09:00+7sw1278100 0.1 1004697
12:00+9sw3367100 0.3 10041193
15:00+9ssw456797 0.6 10041161
18:00+7s457294 0.1 1004739
21:00+5s4883100 0.1 1004542
27 may, fri
fri2700:00+5s388796 0.0 1004386
03:00+4s3894100 0.0 1004384
06:00+5s3693100 0.0 1004375
09:00+9s4671100 0.1 1003900
12:00+11sse4557100 0.1 10031197
15:00+15se264382 0.1 10021959
18:00+13sse356431 0.1 1002700
21:00+9se279082 0.2 1003206
28 may, sat
sat2800:00+6se229881 0.0 100348
03:00+8e2598100 0.1 1002259
06:00+8ese2598100 0.4 1002351
09:00+9se369799 0.9 1001442
12:00+12se4785100 0.1 1000821
15:00+11se51191100 2.6 9981095
18:00+11sse7139298 4.2 9951219
21:00+8s71493100 5.8 9961410
29 may, sun
sun2900:00+8ssw81593100 2.8 9961377
03:00+8ssw71593100 5.1 9981390
06:00+7sw81592100 2.3 10011192
09:00+8ssw71491100 3.4 10031232
12:00+14sw61365100 0.3 10051711
15:00+16ssw695580 0.6 10052067
18:00+12sw4977100 0.9 10071068
21:00+9ssw411895 0.9 1008526